Laramie, WY

7:58 PM MDT on July 23, 2017 (GMT -0600)
Laramie Regional

Weather History for KLAR - March, 2013

Change the Weather History Date:

Saturday, March 23, 2013

  Actual Average Record
Temperature  
Mean Temperature 10 °F 32 °F  
Max Temperature 18 °F 45 °F 71 °F (2012)
Min Temperature 1 °F 20 °F -10 °F (1974)
Degree Days  
Heating Degree Days 55 32  
Month to date heating degree days 788 806  
Since 1 July heating degree days 6692 6982  
Cooling Degree Days 0 0  
Month to date cooling degree days 0 0  
Year to date cooling degree days 0 0  
Moisture  
Dew Point 6 °F    
Average Humidity 73    
Maximum Humidity 86    
Minimum Humidity 59    
Precipitation  
Precipitation T in 0.02 in 0.26 in (1949)
Month to date precipitation 0.20 0.41  
Year to date precipitation 0.77 1.02  
Sea Level Pressure  
Sea Level Pressure 30.00 in    
Wind  
Wind Speed 10 mph (NNE)    
Max Wind Speed 21 mph    
Max Gust Speed 24 mph    
Visibility 7 miles    
Events Snow    
T = Trace of Precipitation, MM = Missing Value Source: NWS Daily Summary

Daily Weather History Graph

Daily Weather History Graph

Search for Another Location

Airport or City:

Trip Planner

Search our weather history database for the weather conditions in past years. The results will help you decide how hot, cold, wet, or windy it might be!

Date:

Astronomy

Mar. 23, 2013 Rise Set
Actual Time 7:00 AM MDT 7:18 PM MDT
Civil Twilight 6:32 AM MDT 7:46 PM MDT
Nautical Twilight 6:00 AM MDT 8:18 PM MDT
Astronomical Twilight 5:27 AM MDT 8:51 PM MDT
Moon 3:46 PM MDT (3/23) 4:40 AM MDT (3/23)
Length of Visible Light 13h 13m
Length of Day
12h 18m
Waxing Gibbous, 85% of the Moon is Illuminated
Mar 23
Waxing Gibbous
Mar 27
Full
Apr 2
Last Quarter
Apr 10
New
Apr 18
First Quarter

Hourly Weather History & Observations

Time (MDT) Temp. Windchill Dew Point Humidity Pressure Visibility Wind Dir Wind Speed Gust Speed Precip Events Conditions
12:12 AM 17.6 °F 3.2 °F 8.6 °F 68% 29.81 in - ENE 15.0 mph - 0.00 in   Overcast
12:53 AM 16.0 °F 0.6 °F 8.1 °F 71% 29.87 in - ENE 16.1 mph - 0.00 in   Overcast
1:53 AM 15.1 °F 0.5 °F 8.1 °F 74% 29.90 in - ENE 13.8 mph - N/A   Overcast
2:53 AM 15.1 °F 0.5 °F 8.1 °F 74% 29.90 in - NE 13.8 mph - N/A   Overcast
3:09 AM 15.8 °F 0.9 °F 8.6 °F 73% 29.80 in 8.0 mi NE 15.0 mph - 0.00 in Snow Light Snow
3:53 AM 15.1 °F 1.8 °F 9.0 °F 77% 29.89 in 6.0 mi ENE 11.5 mph - 0.00 in Snow Light Snow
4:53 AM 12.9 °F -2.2 °F 7.0 °F 77% 29.92 in 5.0 mi NNE 13.8 mph - 0.00 in Snow Light Snow
5:25 AM 12.2 °F -1.8 °F 6.8 °F 79% 29.81 in 10.0 mi NE 11.5 mph - 0.00 in   Overcast
5:53 AM 12.0 °F -4.5 °F 6.1 °F 77% 29.94 in 9.0 mi NE 16.1 mph - 0.00 in Snow Light Snow
6:53 AM 10.0 °F -6.5 °F 3.9 °F 76% 29.98 in 10.0 mi NNE 15.0 mph 21.9 mph 0.00 in   Overcast
7:03 AM 10.4 °F -6.0 °F 3.2 °F 73% 29.84 in 10.0 mi NE 15.0 mph - N/A   Overcast
7:53 AM 10.0 °F -7.6 °F 3.0 °F 73% 30.02 in 10.0 mi NNE 17.3 mph 23.0 mph N/A   Overcast
8:53 AM 10.9 °F -4.7 °F 1.9 °F 67% 30.03 in 10.0 mi NE 13.8 mph - N/A   Overcast
9:53 AM 10.9 °F -2.6 °F 3.0 °F 70% 30.07 in - NNE 10.4 mph - 0.00 in Snow Light Snow
10:00 AM 10.4 °F -3.3 °F 3.2 °F 73% 29.90 in - North 10.4 mph - 0.00 in Snow Light Snow
10:10 AM 10.4 °F -4.1 °F 3.2 °F 73% 29.91 in 2.0 mi North 11.5 mph 18.4 mph 0.00 in Snow Light Snow
10:24 AM 10.4 °F -4.1 °F 3.2 °F 73% 29.92 in 1.8 mi NNE 11.5 mph - 0.00 in Snow Light Snow
10:37 AM 10.4 °F -7.2 °F 3.2 °F 73% 29.92 in 3.0 mi NNE 17.3 mph 23.0 mph 0.00 in Snow Light Snow
10:53 AM 10.9 °F -5.9 °F 3.9 °F 73% 30.11 in 1.8 mi North 16.1 mph - 0.00 in Snow Light Snow
11:29 AM 10.4 °F -6.0 °F 6.8 °F 85% 29.94 in 1.0 mi North 15.0 mph - 0.00 in Snow Light Snow
11:53 AM 12.0 °F -2.0 °F 6.1 °F 77% 30.12 in - North 11.5 mph - 0.00 in Snow Light Snow
12:05 PM 12.2 °F -1.8 °F 6.8 °F 79% 29.94 in - NNE 11.5 mph - 0.00 in Snow Light Snow
12:18 PM 12.2 °F -1.8 °F 6.8 °F 79% 29.94 in 2.5 mi North 11.5 mph - 0.00 in Snow Light Snow
12:26 PM 12.2 °F -1.0 °F 6.8 °F 79% 29.94 in - North 10.4 mph - 0.00 in Snow Light Snow
12:53 PM 14.0 °F 0.5 °F 5.0 °F 67% 30.12 in 9.0 mi NNE 11.5 mph 19.6 mph 0.00 in   Overcast
1:48 PM 15.8 °F 3.4 °F 3.2 °F 58% 29.95 in - NNE 10.4 mph - N/A   Overcast
1:53 PM 16.0 °F 2.3 °F 5.0 °F 62% 30.11 in - North 12.7 mph - N/A   Overcast
2:43 PM 15.8 °F 2.1 °F 3.2 °F 58% 29.95 in 9.0 mi NNE 12.7 mph 20.7 mph N/A   Overcast
2:53 PM 15.1 °F 3.3 °F 3.9 °F 61% 30.13 in 10.0 mi NNE 9.2 mph 19.6 mph N/A   Overcast
3:40 PM 15.8 °F - 6.8 °F 68% 29.96 in 6.0 mi Calm Calm - 0.00 in Snow Light Snow
3:53 PM 15.1 °F 9.4 °F 6.1 °F 68% 30.13 in 4.0 mi ENE 3.5 mph - 0.00 in Snow Light Snow
4:37 PM 17.6 °F - 6.8 °F 63% 29.96 in 10.0 mi Calm Calm - 0.00 in   Overcast
4:53 PM 17.1 °F - 3.9 °F 56% 30.14 in - North - - 0.00 in   Overcast
5:50 PM 15.8 °F 6.1 °F 6.8 °F 68% 29.97 in - West 6.9 mph - N/A   Overcast
5:53 PM 16.0 °F 6.3 °F 8.1 °F 71% 30.16 in - WSW 6.9 mph - N/A   Overcast
6:30 PM 15.8 °F 6.1 °F 8.6 °F 73% 29.98 in 10.0 mi SW 6.9 mph - N/A   Overcast
6:43 PM 14.0 °F 2.9 °F 8.6 °F 79% 29.98 in 8.0 mi SW 8.1 mph - N/A   Overcast
6:53 PM 14.0 °F 2.9 °F 8.1 °F 77% 30.20 in 8.0 mi SW 8.1 mph - N/A   Overcast
8:26 PM 12.2 °F 4.3 °F 6.8 °F 79% 30.00 in 10.0 mi South 4.6 mph - N/A   Overcast
8:53 PM 10.9 °F - 6.1 °F 81% 30.23 in - Calm Calm - N/A   Mostly Cloudy
9:53 PM 9.0 °F 2.4 °F 5.0 °F 84% 30.25 in 10.0 mi SSW 3.5 mph - N/A   Clear
10:53 PM 6.1 °F -7.8 °F 1.9 °F 83% 30.25 in 10.0 mi SSW 9.2 mph - N/A   Clear
11:53 PM 3.0 °F -8.0 °F -0.9 °F 84% 30.25 in 10.0 mi SSW 5.8 mph - N/A   Scattered Clouds